sat.trackr.live / text

‹ back to catalog

STARLINK-32724

NORAD 62441 · 2024-251K

PAYLOAD ACTIVE UNKNOWN

§ Identity

Operator
Country
US
Launch date
2024-12-29
Launch site
AFWTR
Launch vehicle
Mass (kg)
RCS (m²)

Purposes: comms

External: N2YO · Heavens-Above · Gunter

§ Orbital elements

Epoch: 2026-05-24T22:28:34.395744Z

Period
94.11 min
Inclination
53.1612°
Eccentricity
0.0001030
Mean motion
15.30202390 rev/d
Perigee alt
474.5 km
Apogee alt
475.9 km
Semi-major
6,853.3 km
B*
6.3681e-4
RAAN
341.0419°
Arg perigee
76.1315°
Mean anomaly
283.9800°
Rev number
7,946

§ Raw data

STARLINK-327241 62441U 24251K   26144.93650921  .00018550  00000+0  63681-3 0  99982 62441  53.1612 341.0419 0001030  76.1315 283.9800 15.30202390 79467

JSON: /api/v1/satellites/62441 · /tle

For live sub-satellite position, see the globe view (requires WebGL).

§ Visibility from observer

Set your observer location to see the next 7 days of passes ≥ 10°. The values pass through the URL so the page stays shareable.

No JS? Fill the form by hand. The geolocation button needs JavaScript.